Wind_Speed
23 24 23 22 23 21 19 18 20 20 20 18 17 17 17 17 17 16 15 15 15 15 15 14 14 13 12 12 12 12 11 10 10 9 9 9 9 9 9 9 8 8 9 9 10 10 10 9 9 9 9 9 9 9 10 10 9 9 9 9 10 11 11 12 12 12 12 12 11 11 10 10 10 10 11 12 12 11 11 11 11 11 11 12 13
24 24 23 22 22 20 18 18 18 18 18 17 17 17 17 17 16 15 14 14 14 15 15 14 13 12 11 11 11 11 10 10 10 9 9 9 9 9 9 9 8 8 9 10 10 10 10 9 8 8 9 9 10 11 11 11 10 9 10 10 10 10 10 11 11 11 11 11 11 11 10 9 9 10 10 11 12 11 10 11 11 11 11 12 13
25 25 23 22 22 20 18 19 18 18 17 16 16 16 16 15 15 14 14 14 14 14 14 13 12 11 10 10 10 11 11 11 10 10 10 10 9 9 8 8 8 8 9 10 10 10 9 9 8 8 8 10 11 11 11 12 11 10 9 9 9 9 9 9 10 10 10 10 10 10 10 9 9 10 10 11 12 12 11 11 11 11 11 13 14
26 24 24 22 21 20 19 19 19 18 16 15 15 15 14 14 14 13 13 13 13 14 14 14 12 10 9 11 11 10 11 11 11 11 10 10 9 8 8 8 8 8 9 10 10 9 9 9 9 8 9 10 11 11 11 12 11 10 9 9 8 8 8 8 8 9 9 9 9 8 9 9 9 10 10 11 11 11 11 10 11 11 12 13 14
26 24 23 22 20 19 19 18 17 16 15 14 14 14 13 13 13 13 13 13 14 14 15 15 12 10 10 11 11 10 11 11 11 11 10 9 8 7 8 8 9 9 9 9 9 9 9 9 9 10 10 11 11 11 11 11 11 10 9 8 7 6 7 7 7 8 9 9 8 8 9 10 10 10 10 11 11 11 11 11 11 12 12 13 13
25 25 23 22 20 18 18 17 16 14 13 13 13 13 13 13 14 13 13 14 14 15 16 15 13 11 11 12 11 10 10 10 10 10 9 8 8 7 8 8 8 9 9 9 9 9 9 10 10 11 12 12 12 13 13 12 11 10 9 7 6 6 6 7 8 8 9 9 8 9 10 10 10 11 11 11 11 11 12 12 12 12 12 13 13
25 25 23 22 19 17 17 16 14 13 13 13 13 14 14 14 14 14 14 14 14 15 16 14 13 13 12 12 11 10 10 10 10 9 8 8 8 8 8 8 8 8 9 10 9 9 9 10 11 12 13 13 13 13 13 12 12 11 10 8 7 7 6 7 8 8 8 8 8 10 11 10 10 11 11 11 12 13 12 12 12 11 11 12 11
27 25 23 22 19 17 17 16 15 14 13 13 14 15 15 15 15 15 14 15 14 14 15 13 13 14 13 12 11 10 10 10 9 9 8 8 9 8 8 8 8 8 10 10 9 9 10 11 12 11 12 13 12 11 11 12 13 12 11 10 9 8 7 7 8 8 8 8 8 10 11 10 10 11 11 12 12 13 12 12 11 11 11 11 11
27 25 24 22 19 18 17 16 15 15 14 14 15 15 15 14 14 15 14 14 14 13 14 13 13 13 12 11 10 10 10 9 9 9 8 9 9 8 8 8 8 9 10 11 9 8 9 11 12 11 12 12 11 10 10 12 13 13 12 11 9 8 8 9 9 9 9 8 9 11 11 11 11 11 11 12 12 13 12 11 11 11 11 10 11
27 25 24 21 20 18 17 16 16 15 15 15 14 14 13 13 13 14 13 13 13 12 12 12 12 13 12 11 11 10 10 10 10 9 9 9 9 9 9 8 9 9 11 11 10 9 9 11 12 11 11 11 10 10 10 11 12 12 12 11 9 9 10 10 11 10 10 10 10 11 11 11 12 11 11 11 11 11 11 11 11 11 11 11 12
27 26 23 21 20 18 17 16 16 16 15 15 14 13 13 13 13 13 13 13 12 12 12 11 11 13 12 11 11 11 10 11 10 9 9 9 9 9 9 9 9 9 10 11 11 10 10 11 11 11 11 11 10 10 10 11 12 12 11 10 9 9 10 11 11 11 12 12 12 12 12 11 12 11 11 10 10 11 10 10 10 11 11 12 13
28 26 23 21 20 18 17 16 16 16 15 14 13 13 12 12 12 12 12 12 12 12 11 11 11 12 12 11 11 12 11 11 11 9 9 9 9 9 9 9 9 9 10 10 11 11 11 11 11 11 11 10 10 10 11 12 12 12 12 10 9 8 9 11 12 11 12 13 13 13 13 12 12 11 11 11 10 10 10 10 10 11 12 13 13
28 26 24 22 20 18 17 17 16 16 15 14 13 12 12 12 12 11 11 11 12 12 11 11 12 12 11 11 11 12 12 11 10 10 9 9 9 9 9 9 8 9 10 10 11 11 11 10 10 10 10 10 11 11 11 12 12 13 13 11 9 9 9 10 12 12 11 11 12 12 12 12 11 12 11 11 10 9 9 10 10 11 12 12 12
29 26 24 22 20 18 17 17 16 16 15 14 12 12 12 12 11 11 11 11 12 12 11 11 12 12 11 11 11 12 11 11 11 10 10 9 9 9 9 9 8 8 9 10 10 11 11 10 9 9 10 10 11 11 10 11 12 13 12 11 10 10 9 10 12 12 12 11 12 12 12 12 11 12 11 10 10 9 9 9 9 10 11 12 11
28 27 24 22 20 18 17 16 16 16 14 14 13 12 12 12 12 12 11 11 11 11 11 12 12 12 12 12 12 12 12 11 10 10 10 10 10 10 10 9 9 8 9 9 9 10 10 10 9 10 10 11 11 11 10 10 11 12 11 11 11 10 10 10 11 12 12 12 12 11 11 11 11 11 10 10 9 9 9 9 9 9 10 11 11
28 26 24 23 20 18 17 16 16 15 14 13 13 12 12 11 12 11 11 11 11 11 12 12 13 13 13 12 12 12 12 11 11 11 11 10 11 11 11 10 9 9 9 9 9 9 10 10 9 10 11 12 11 10 9 10 10 11 10 10 10 10 10 10 11 12 11 11 11 11 11 10 10 9 9 9 9 8 8 8 8 8 9 10 10
27 26 25 23 20 18 17 17 16 15 14 13 13 12 12 11 12 11 11 11 11 12 12 13 13 13 13 13 13 12 13 12 12 12 12 11 11 11 11 10 9 9 9 9 9 9 10 10 10 10 11 11 11 10 10 9 9 10 9 8 9 9 10 11 11 12 11 11 11 10 10 10 9 9 8 8 8 7 7 8 8 7 8 8 9
26 25 25 23 20 18 18 17 16 15 14 13 13 13 12 12 12 12 11 12 12 13 13 12 12 13 13 13 13 13 13 13 13 13 13 13 12 11 11 11 10 9 10 10 10 10 10 10 10 10 10 10 10 10 10 9 10 9 8 8 8 9 9 10 11 11 11 10 10 9 9 9 9 9 8 8 8 7 7 7 7 6 7 7 7
26 25 24 22 20 19 19 18 16 15 14 14 13 13 13 12 12 12 12 12 13 13 13 12 12 13 13 13 14 13 13 13 13 13 14 14 13 12 11 11 10 10 10 10 10 9 10 10 10 9 9 10 10 10 9 9 9 9 9 9 8 8 9 9 10 10 9 9 9 8 8 9 9 9 8 8 7 7 6 6 6 5 5 5 5
25 24 23 21 20 20 20 18 17 16 15 15 14 14 13 13 13 13 13 13 13 13 13 13 13 13 13 14 14 13 13 12 13 13 13 14 13 12 11 11 10 10 10 10 10 10 10 10 10 10 9 10 10 9 9 9 8 9 9 9 8 8 8 8 9 9 8 8 8 7 7 9 9 9 8 8 7 6 6 6 6 4 4 4 4
24 23 22 20 20 20 21 18 17 17 16 16 15 14 14 13 13 13 14 14 14 14 14 13 13 13 12 13 13 13 12 12 12 12 12 12 12 12 11 11 10 10 10 10 11 10 10 10 10 10 10 9 9 9 9 9 8 8 9 9 8 8 7 8 8 8 7 7 7 6 7 8 8 8 8 7 6 6 5 5 5 4 4 3 3
23 23 21 21 20 20 21 19 17 17 17 16 16 15 14 14 14 15 14 14 15 14 14 13 13 12 12 12 12 12 12 11 11 11 11 10 11 11 10 10 10 10 10 10 10 10 10 10 11 10 10 10 9 9 9 9 9 8 8 8 8 7 6 7 7 7 6 6 6 6 7 7 7 7 7 7 6 6 5 4 4 3 3 3 2
24 23 22 21 21 20 21 19 18 18 17 17 16 15 14 15 15 16 16 15 15 14 14 14 13 12 11 11 11 11 10 10 10 10 10 10 10 9 9 9 9 9 10 10 10 10 10 10 11 11 11 10 10 10 10 10 9 8 8 8 8 7 6 7 7 7 6 6 5 5 6 6 6 6 6 6 6 5 5 4 4 3 3 3 2
26 24 23 23 22 21 21 20 18 18 17 17 17 15 15 16 16 17 16 16 15 15 14 14 14 13 12 11 10 9 9 9 9 9 9 9 9 9 8 8 8 8 9 9 10 10 10 10 11 11 11 11 10 10 11 10 10 9 9 8 8 8 6 6 6 7 6 6 5 5 5 5 5 5 5 5 6 6 6 5 4 4 3 3 3
27 24 24 25 24 23 22 20 19 18 18 18 17 16 16 17 17 17 17 16 16 15 15 15 14 13 12 10 10 9 8 8 8 8 9 9 9 9 8 9 9 9 8 9 9 9 10 10 11 11 11 11 11 11 11 11 11 10 9 8 8 8 7 5 5 6 6 5 5 5 5 5 5 4 5 5 5 5 5 5 5 4 4 3 3
26 24 24 26 25 24 23 21 19 19 18 18 17 16 17 17 17 18 17 17 16 16 15 14 14 12 11 9 9 8 7 7 7 8 9 9 9 8 8 9 9 9 9 10 10 10 10 10 10 11 11 11 10 10 10 10 10 10 9 9 8 8 7 6 4 4 5 5 4 5 5 5 4 4 4 4 4 5 5 5 5 5 4 4 3
26 24 24 26 26 25 24 22 20 20 19 19 18 16 16 16 17 17 17 17 17 16 15 14 13 11 9 8 8 7 7 7 7 8 8 9 9 8 7 7 7 8 9 10 10 10 10 10 10 10 10 10 9 9 9 9 10 10 10 9 8 7 7 6 5 4 4 4 4 4 4 4 4 4 4 4 3 4 4 4 5 5 5 4 4
25 23 23 27 27 25 25 24 22 21 20 20 19 17 17 17 17 17 17 17 17 16 14 14 12 11 9 8 8 7 7 7 8 8 8 8 8 8 7 6 6 6 7 8 8 8 8 8 8 8 9 8 8 8 9 9 9 10 10 8 8 7 7 7 6 5 4 4 3 3 3 4 4 3 3 3 3 3 3 3 3 4 4 5 4
25 25 25 28 28 26 25 24 22 22 21 21 20 19 18 18 18 18 18 17 16 15 14 13 12 11 9 8 8 8 8 8 8 8 8 8 8 8 6 5 5 5 5 5 5 6 5 5 5 6 6 7 7 7 8 8 9 9 9 8 7 7 7 7 7 6 4 3 3 2 3 3 3 3 3 3 2 2 1 2 2 3 3 4 4
27 26 27 29 29 27 26 23 22 22 22 22 22 21 20 19 19 18 18 17 16 15 13 13 12 11 10 9 9 9 9 9 8 8 8 8 8 7 7 6 5 5 4 4 4 4 3 3 2 3 4 4 4 5 6 7 7 8 8 7 6 6 6 7 7 7 6 4 3 2 2 3 3 3 3 2 2 2 2 1 1 1 2 2 2
28 26 27 30 30 28 26 24 23 22 22 22 22 21 20 20 19 19 18 17 16 15 14 13 12 11 10 9 9 9 9 9 8 8 8 7 7 7 6 6 6 5 5 5 4 4 3 3 3 2 2 2 2 3 3 4 5 7 7 6 6 5 5 6 6 7 7 6 4 2 1 2 3 3 3 2 2 2 2 2 1 1 1 1 1
31 29 28 30 31 29 27 25 24 22 22 22 22 21 21 20 19 19 18 17 16 15 14 14 13 11 10 10 10 10 9 9 8 7 7 7 6 6 5 5 5 5 5 5 4 4 3 2 3 3 3 3 3 3 2 1 3 5 6 6 5 4 4 4 5 6 6 6 5 3 1 1 2 2 2 3 3 2 2 2 2 2 1 1 1
32 30 29 30 31 30 29 27 25 24 23 22 22 22 21 20 19 19 18 18 16 15 14 14 13 12 10 10 10 10 9 8 8 7 7 6 6 6 5 5 5 5 4 4 3 3 3 2 3 3 4 4 4 5 3 2 0 3 4 5 5 4 3 3 4 4 5 5 5 3 2 1 1 1 2 2 2 2 2 3 3 3 2 2 2
33 31 30 31 32 31 30 29 27 25 24 23 23 22 21 20 19 19 18 18 17 15 14 13 13 12 11 11 11 9 9 9 8 7 7 6 6 6 5 5 4 5 4 3 3 3 3 3 3 3 3 4 4 5 5 4 2 1 3 4 5 4 2 2 3 4 5 5 4 3 2 1 2 1 1 2 2 3 3 3 3 3 3 3 3
35 33 33 33 32 32 32 30 29 27 26 25 24 22 21 20 19 18 18 18 17 15 14 13 13 13 12 12 11 9 9 9 8 7 6 6 5 5 5 4 3 3 3 3 2 2 2 2 2 3 3 3 4 5 6 5 4 1 2 4 5 3 0 1 2 3 4 4 3 2 2 2 2 2 1 1 2 3 3 3 3 3 3 3 3
38 36 35 33 32 33 33 32 30 29 27 26 24 23 21 20 18 18 18 17 16 16 15 14 13 13 13 12 11 9 9 9 8 6 5 5 5 4 4 4 3 3 3 3 2 2 1 1 2 2 2 2 3 4 5 6 5 2 1 4 4 2 1 1 1 2 3 3 3 3 2 2 2 2 2 1 1 2 3 3 3 3 3 3 4
39 37 35 34 33 33 33 32 31 30 28 27 25 24 22 20 18 17 17 17 16 16 15 15 14 14 14 13 12 10 9 8 7 6 5 4 4 4 4 4 3 3 3 3 2 1 1 1 2 1 2 2 3 3 4 5 6 4 2 3 4 2 2 2 2 1 1 2 4 4 4 4 3 2 2 0 1 1 2 2 2 3 3 3 3
39 38 36 34 34 34 34 33 32 31 30 28 26 24 23 21 20 18 17 17 17 16 15 15 15 15 14 13 12 11 9 8 7 5 5 4 4 5 4 4 3 3 2 2 2 1 0 1 1 2 3 3 3 3 3 4 6 6 4 3 4 2 3 2 2 1 2 3 5 5 5 5 5 4 3 1 1 1 1 1 1 2 3 3 3
39 38 37 36 35 34 34 34 34 33 31 29 28 26 24 23 21 20 18 18 17 17 16 16 15 15 15 14 13 12 11 9 8 6 5 5 4 4 4 3 3 3 2 1 1 1 1 1 2 2 3 3 3 3 2 3 5 6 4 3 2 3 3 3 2 2 3 4 5 6 6 7 7 7 6 4 3 2 3 2 2 1 2 2 3
40 39 38 38 37 36 36 35 35 34 33 31 30 28 27 25 24 22 21 19 18 18 17 16 16 16 15 15 14 13 12 10 9 8 6 6 4 4 3 2 2 3 2 1 1 2 2 2 2 3 4 3 3 3 3 3 4 5 4 3 4 4 4 3 2 2 3 4 5 5 6 7 7 8 7 6 5 4 4 4 3 2 2 1 1
41 40 39 39 38 38 38 37 36 35 35 34 32 31 30 28 26 25 23 21 20 19 18 17 17 17 16 15 14 14 13 11 10 9 8 7 6 4 4 3 3 3 2 2 2 4 4 3 3 3 4 4 4 2 2 3 3 5 5 5 6 5 4 3 2 2 2 2 3 3 4 5 6 7 7 7 7 7 7 6 5 3 2 1 1
42 41 40 39 39 39 39 39 38 37 36 35 34 33 31 29 27 25 23 22 21 20 19 19 18 17 17 16 15 14 14 12 10 10 9 8 7 6 5 4 4 3 3 3 3 4 4 4 4 3 3 4 4 3 2 3 4 6 6 6 6 5 4 3 2 1 1 1 1 1 2 3 4 5 6 6 6 7 8 8 8 6 4 3 2
42 41 40 39 39 39 40 40 40 40 38 37 36 34 32 30 28 25 24 23 23 22 21 20 18 18 18 17 16 15 14 12 11 10 9 8 8 7 7 6 5 5 4 4 4 4 4 4 4 4 4 3 4 4 3 3 4 6 6 5 5 4 4 4 4 3 2 2 1 1 2 3 3 4 5 5 5 5 5 7 8 8 6 4 4
41 41 40 40 40 40 40 41 41 41 40 39 37 35 33 31 29 27 25 24 24 23 23 21 20 19 19 18 17 16 14 13 12 10 9 8 8 7 7 7 7 7 6 5 4 4 4 3 4 4 5 4 4 4 4 5 5 6 5 4 4 4 3 3 4 4 4 3 2 2 2 3 4 5 5 5 5 5 4 5 7 8 7 5 4
43 43 41 41 41 40 40 40 40 41 41 40 38 37 35 33 31 30 28 27 26 25 25 24 22 21 20 20 19 17 15 14 13 11 10 9 8 8 8 8 8 8 8 7 5 4 4 4 4 4 4 5 5 4 4 5 6 7 6 4 4 3 2 3 3 4 4 4 4 3 3 4 5 6 6 6 5 5 5 4 5 7 8 6 4
45 43 41 40 40 40 39 39 40 41 42 41 40 39 38 36 34 33 31 29 28 27 25 25 24 23 22 21 19 18 16 15 14 13 11 10 9 8 8 9 9 9 9 8 6 5 4 4 4 4 4 5 6 5 4 5 6 8 8 6 5 4 3 3 3 3 4 5 5 5 5 5 6 6 6 6 6 5 4 4 4 6 7 7 5
45 43 42 40 40 40 39 39 39 41 42 42 42 40 39 38 36 34 33 31 30 28 25 24 24 23 22 21 20 19 17 16 15 14 13 11 10 9 9 9 9 10 10 9 7 6 5 5 5 5 5 6 6 6 5 5 6 7 8 8 7 6 4 3 3 4 5 5 5 5 6 6 7 7 6 5 6 6 5 4 4 4 5 6 5
44 43 42 41 40 39 39 37 38 40 41 42 42 41 41 40 38 36 35 33 32 29 26 24 24 23 23 22 21 20 18 16 16 15 14 13 11 11 10 9 9 10 10 10 8 7 6 6 6 5 5 6 6 6 6 6 6 6 7 8 8 7 7 5 4 5 6 7 7 6 6 6 6 7 7 6 6 6 5 4 4 4 4 4 4
44 43 42 41 40 38 37 36 36 38 40 42 42 41 41 40 39 38 37 35 34 31 29 27 25 24 24 23 22 20 18 17 16 16 16 15 13 12 11 10 10 10 10 10 9 8 8 8 7 6 6 6 7 7 7 7 7 7 7 7 8 9 9 9 8 7 7 9 9 8 8 8 8 8 7 6 6 6 6 6 5 5 4 4 4
45 44 42 40 39 38 37 37 36 36 38 40 41 41 41 40 40 40 39 37 36 34 32 29 27 25 25 24 23 21 19 18 17 17 17 16 15 14 13 12 10 9 10 10 10 10 9 9 8 7 7 7 8 8 8 8 9 8 8 8 9 9 10 10 10 9 8 9 10 9 9 9 10 9 7 5 6 6 7 6 6 5 5 5 5
45 45 43 41 39 38 38 38 37 36 37 38 40 41 41 41 41 40 40 38 37 36 34 33 30 28 27 25 24 22 20 19 18 18 18 17 16 15 14 13 12 11 10 10 10 10 10 10 9 9 8 8 8 8 9 9 9 9 8 8 9 9 10 10 9 9 8 8 9 10 8 8 10 10 9 7 7 7 7 7 6 6 6 6 7
Wind_Direction
145 140 136 134 131 134 141 142 140 141 141 142 140 138 140 138 137 137 136 134 134 131 128 128 125 122 122 122 120 122 120 116 112 107 107 105 105 102 96 89 84 84 82 80 79 80 82 86 88 88 90 95 106 118 120 114 113 113 113 111 109 108 105 102 100 104 110 116 118 119 119 115 113 113 111 110 105 103 104 103 103 100 99 99 94
146 142 137 135 130 132 138 139 136 136 139 141 139 138 138 139 138 137 137 137 135 132 130 129 125 122 125 126 124 121 115 111 109 109 110 108 105 101 95 88 81 80 78 74 75 83 85 87 89 90 95 99 104 113 117 113 112 111 110 111 111 112 110 106 106 110 117 119 119 121 120 117 115 114 113 111 108 104 104 105 103 98 96 95 91
145 142 139 136 131 134 139 139 137 137 138 138 137 137 137 137 138 136 136 136 132 130 127 124 122 126 134 133 126 124 122 121 119 120 119 114 111 108 103 96 86 78 75 73 74 87 93 95 96 96 102 106 109 112 112 110 109 108 107 107 109 111 109 107 110 116 121 120 118 120 121 121 119 116 115 111 110 108 106 105 101 97 96 92 90
146 141 139 137 133 138 142 141 140 140 141 141 141 140 140 139 140 139 137 136 133 129 124 124 130 137 141 133 129 131 131 128 126 126 124 119 117 114 109 103 95 83 76 74 76 90 99 99 99 97 100 105 108 108 105 104 104 103 101 99 100 102 102 105 112 118 120 119 115 117 122 123 119 114 114 112 111 110 108 104 101 98 95 92 92
147 143 140 136 137 142 143 142 142 142 142 140 140 139 139 139 138 137 135 134 132 129 129 135 141 142 136 129 132 137 133 132 130 127 126 125 122 116 110 106 101 92 83 77 79 92 96 93 95 95 98 100 102 103 101 98 95 93 92 94 97 101 102 105 110 116 118 117 116 121 126 123 120 117 116 116 114 111 109 105 98 95 93 93 92
149 146 140 138 140 144 142 141 141 137 134 131 131 131 130 130 130 129 127 125 126 130 134 138 136 133 128 126 133 135 133 132 130 129 130 130 124 118 113 109 103 97 88 77 80 93 92 92 97 98 100 100 101 102 101 99 96 91 90 91 97 100 101 106 108 111 113 113 116 123 126 124 122 122 121 119 117 112 108 103 96 94 93 93 89
149 146 141 140 141 145 142 137 135 129 126 124 123 123 122 122 123 123 122 122 127 130 129 131 129 126 125 128 134 131 131 133 132 134 132 128 121 116 116 112 105 102 93 77 82 95 90 94 99 100 102 101 101 102 104 105 100 96 93 91 91 92 96 104 104 103 104 106 114 121 125 127 123 121 123 121 118 112 107 102 98 96 93 90 87
150 146 143 141 143 147 142 135 134 129 128 125 123 121 120 120 121 123 123 125 127 125 122 125 126 123 124 129 132 130 133 135 133 131 125 120 119 117 117 114 109 108 99 83 85 97 90 94 99 99 100 99 98 101 105 106 102 99 96 94 93 94 97 100 101 99 100 105 114 119 123 128 122 118 120 118 115 110 106 101 99 96 90 85 83
151 148 146 143 145 147 140 139 137 134 134 130 127 124 122 122 123 124 125 126 124 123 121 119 121 121 126 130 130 129 130 128 122 121 118 116 117 117 118 118 115 111 103 91 90 98 92 91 95 97 97 97 101 103 102 100 98 97 96 94 92 92 90 93 101 100 99 103 109 115 117 119 117 115 117 117 113 109 105 102 97 90 84 81 84
153 151 149 144 145 145 141 142 140 138 136 132 130 127 125 124 124 125 125 124 121 122 119 118 123 123 124 128 129 126 124 121 116 117 115 115 117 118 120 120 116 113 107 99 95 100 93 87 91 95 95 96 99 98 95 92 92 93 94 93 90 86 80 87 99 99 98 99 105 110 110 112 113 113 114 113 111 107 105 101 95 85 79 81 86
155 154 150 144 144 143 143 144 142 140 137 133 131 129 127 126 125 124 124 121 121 121 118 120 122 119 119 124 124 120 119 117 113 111 110 113 117 118 120 120 116 114 111 103 98 102 98 91 93 95 93 96 97 97 96 92 94 95 94 92 92 88 79 84 95 98 97 97 101 104 103 106 110 111 109 108 106 102 99 96 91 84 78 80 85
156 155 150 144 144 144 145 145 143 140 137 133 130 131 129 127 126 124 123 121 122 121 118 118 115 113 117 119 116 115 113 111 109 107 107 109 111 113 118 120 118 117 114 106 99 103 107 103 101 98 96 101 107 109 107 102 102 100 95 90 91 89 82 83 93 99 95 93 94 96 98 102 106 107 105 103 101 98 97 94 90 84 79 82 87
158 156 152 145 144 147 148 147 145 141 136 133 131 133 131 129 129 127 125 120 119 118 117 115 112 112 113 111 109 110 108 107 107 106 105 103 104 107 110 114 116 116 113 107 101 103 109 110 105 99 96 100 106 109 107 104 102 97 92 88 86 85 84 85 91 97 95 93 92 93 98 100 103 104 102 102 99 95 94 93 90 84 80 85 92
159 158 154 148 146 149 151 149 146 141 137 135 135 135 133 132 130 129 125 120 119 119 119 114 112 111 109 109 107 106 105 104 105 105 102 100 103 102 103 106 110 109 107 106 102 101 106 109 103 95 91 91 96 100 98 96 94 91 89 87 85 83 85 89 88 91 93 94 92 92 95 96 99 101 102 103 100 97 93 90 89 87 85 88 95
160 160 157 150 147 150 152 151 147 142 139 137 137 137 136 133 129 127 124 122 121 118 117 114 113 112 111 111 110 107 105 104 103 102 99 99 101 99 99 103 109 108 105 106 102 99 101 104 97 87 84 84 86 90 89 87 87 87 88 86 83 83 85 89 89 88 88 89 89 88 90 92 95 97 101 102 101 100 95 93 93 92 92 94 98
162 161 159 152 148 152 154 151 148 144 142 139 139 141 137 133 130 126 125 124 121 118 116 115 114 113 112 110 108 106 103 102 99 98 96 96 97 99 100 102 107 110 106 104 102 98 97 99 93 85 83 82 82 82 82 84 87 87 87 87 85 86 86 87 87 86 86 85 84 84 86 87 89 92 96 96 95 96 96 99 99 98 97 100 102
163 163 161 155 150 154 156 151 150 146 143 140 141 141 135 133 132 129 129 125 121 119 118 116 115 113 110 107 104 103 102 99 97 96 94 93 94 94 97 98 101 104 105 105 105 100 94 95 93 89 86 86 85 82 82 83 86 85 86 90 91 91 88 87 84 84 83 83 83 81 85 86 88 89 87 88 90 91 95 102 102 101 103 104 104
164 165 163 158 153 156 157 153 151 148 144 143 143 140 135 134 133 134 132 127 124 122 119 116 115 113 108 107 105 103 101 98 97 97 95 95 94 93 94 93 94 95 100 105 107 103 95 95 95 92 89 90 90 85 84 82 82 83 85 88 91 93 91 88 85 84 82 81 82 80 84 88 91 92 90 91 92 93 96 102 103 105 111 106 105
166 166 165 160 156 158 157 154 153 150 148 145 143 140 136 136 135 137 133 129 128 124 121 118 116 113 110 110 107 104 101 99 99 97 97 97 96 93 92 90 93 95 96 99 102 102 97 96 96 93 93 96 95 90 87 85 84 85 86 85 87 90 90 89 88 86 83 81 82 83 92 94 91 89 87 86 85 89 93 96 99 103 112 113 116
168 168 166 163 160 160 158 156 156 154 151 147 143 141 138 138 137 138 135 130 129 127 125 123 121 117 116 113 110 107 103 100 99 99 99 99 98 95 92 91 93 95 93 93 96 99 99 98 98 98 100 101 97 92 89 88 87 85 84 85 86 87 87 88 89 86 83 83 81 84 98 99 95 91 86 82 78 80 85 91 98 103 111 123 136
170 170 168 167 163 163 161 158 160 157 154 150 144 143 141 140 140 139 136 132 131 129 128 126 125 121 119 116 114 111 105 103 101 101 101 99 100 97 92 90 90 94 93 93 94 96 99 101 103 103 103 100 97 92 89 88 88 86 84 86 85 85 88 88 89 88 84 82 80 81 90 95 97 98 98 97 93 87 83 85 92 98 104 116 145
171 173 172 171 167 165 163 160 161 159 157 153 147 147 144 143 143 141 138 135 133 131 131 129 126 123 119 116 115 113 110 109 106 103 102 99 99 95 90 86 85 89 94 97 97 96 99 105 109 108 107 102 97 91 85 83 86 89 86 87 88 89 93 93 92 93 90 86 82 78 80 86 93 96 97 98 101 101 97 96 99 99 100 104 140
173 176 177 175 171 168 166 163 164 162 159 155 151 150 148 147 146 144 142 139 137 135 134 131 127 123 118 116 113 112 111 108 107 105 103 102 102 101 98 93 89 88 92 98 100 101 102 109 113 111 109 105 98 91 86 82 81 83 81 82 90 94 96 97 98 97 98 94 89 82 77 80 87 89 86 82 83 86 89 96 105 106 100 97 103
175 179 180 180 176 171 168 166 166 164 161 158 155 155 154 153 150 148 146 143 141 138 135 132 129 125 122 120 116 114 111 108 109 108 103 101 103 108 108 101 98 94 95 101 102 104 104 109 112 110 108 105 99 92 86 81 76 74 74 74 81 90 93 95 101 104 105 103 103 98 87 83 86 87 81 74 68 67 68 72 86 98 98 92 87
177 181 183 183 180 176 172 169 169 167 166 163 160 161 160 157 155 153 149 147 145 141 139 137 133 130 129 127 124 119 113 112 115 113 106 102 104 108 108 103 103 104 105 109 110 108 107 110 111 110 110 107 100 91 84 79 76 73 71 69 70 79 86 92 102 108 110 111 116 110 102 98 96 92 84 74 66 62 59 62 70 87 99 100 85
180 182 185 186 183 180 176 172 172 172 171 167 164 165 163 159 159 157 152 150 148 146 145 142 138 135 134 132 129 123 118 118 117 116 114 110 107 105 104 103 107 111 113 116 117 116 114 114 113 114 112 107 98 89 82 76 74 72 69 69 69 73 78 83 91 102 110 115 123 119 116 115 108 101 92 81 69 60 51 53 58 70 91 101 93
183 183 186 187 184 183 181 177 176 176 174 170 168 168 166 163 162 159 156 154 152 153 152 149 145 141 139 136 133 129 126 125 124 125 123 120 114 109 107 106 111 116 118 119 120 120 118 117 116 115 112 107 100 91 83 76 73 70 67 68 71 73 73 74 76 87 101 113 124 128 129 131 125 114 104 91 75 69 58 51 51 55 66 77 86
184 185 187 188 186 185 184 183 180 179 177 174 172 171 169 167 164 162 160 158 158 160 160 157 152 147 146 143 140 135 132 132 135 136 132 128 122 118 114 111 115 121 126 127 127 126 122 118 117 116 113 108 103 98 90 83 75 69 64 63 66 69 69 69 67 72 84 104 121 136 139 140 139 125 117 109 89 82 75 65 58 54 55 60 69
186 187 189 188 188 187 186 186 184 181 179 177 175 173 172 171 168 165 163 162 163 166 167 163 157 154 153 151 148 141 137 136 141 146 142 136 130 126 123 116 115 119 129 138 140 140 135 127 119 118 116 110 105 100 94 85 75 67 61 56 59 61 62 61 57 57 60 80 112 144 151 146 149 144 140 134 117 117 107 86 71 63 58 57 64
188 189 191 189 188 189 187 187 186 183 181 179 177 175 175 174 171 167 165 165 166 169 170 166 162 159 158 157 156 149 144 143 147 151 148 143 138 134 131 125 120 121 131 144 158 164 163 162 149 134 127 120 112 104 97 83 70 63 57 50 49 51 52 55 51 48 44 48 75 125 159 150 157 162 160 159 158 168 161 138 114 85 69 62 69
191 191 192 191 189 189 189 187 187 185 183 180 177 176 176 176 174 170 167 167 169 170 170 169 167 165 164 163 162 156 151 148 151 153 149 146 144 140 135 130 131 134 137 146 161 174 184 203 213 204 192 173 158 128 105 83 70 61 54 46 41 38 39 45 46 43 37 34 47 79 149 158 167 174 171 181 193 201 193 174 184 182 124 55 53
194 195 195 193 190 190 189 188 186 185 184 181 178 176 177 177 176 173 170 170 173 174 173 173 172 171 172 169 168 165 159 155 155 156 152 148 149 146 140 138 141 143 145 151 160 168 174 198 218 230 238 227 218 205 179 97 73 63 50 42 35 27 25 31 36 37 33 28 34 57 114 164 179 179 182 195 204 216 217 206 219 223 219 252 260
196 198 197 195 192 190 190 189 186 185 183 181 179 177 177 178 178 175 172 174 176 178 178 177 177 178 177 174 174 174 169 164 161 161 157 154 155 149 146 146 147 147 147 150 159 165 169 189 210 227 244 247 241 227 218 234 91 63 45 33 25 18 11 11 20 30 27 22 22 37 85 157 190 189 206 220 225 238 238 233 239 243 248 261 262
198 198 200 198 194 191 191 190 187 185 184 182 180 177 176 176 178 176 175 177 179 180 180 180 182 181 179 177 179 181 177 173 169 166 163 159 155 148 150 154 149 148 150 151 158 165 179 199 215 223 231 243 245 236 229 236 244 49 37 20 15 13 6 359 9 22 22 19 16 25 65 136 165 181 228 248 251 249 251 257 268 270 267 271 273
201 201 202 200 196 194 193 192 189 187 186 184 182 179 177 176 177 177 178 181 183 184 184 186 187 186 183 181 182 183 181 177 173 169 165 164 159 152 155 164 160 153 158 165 166 165 179 207 221 220 230 244 254 247 235 234 241 282 20 3 5 14 71 71 33 20 17 18 20 29 54 109 141 160 183 228 252 256 255 257 270 275 276 281 285
205 205 204 202 199 197 195 194 192 190 189 188 186 183 182 180 180 179 181 184 186 187 189 192 195 193 189 187 187 185 183 181 179 175 167 167 167 166 175 181 174 156 149 152 152 149 171 240 236 228 254 267 272 267 250 240 240 253 341 346 350 355 186 140 93 23 19 32 46 64 74 88 110 130 145 173 263 276 259 241 248 268 279 288 290
207 207 206 204 201 200 198 197 196 195 193 192 190 188 187 186 186 185 187 188 189 190 192 196 199 200 196 193 192 189 188 189 188 184 173 168 168 175 188 190 184 170 150 144 152 172 202 261 265 259 260 268 276 273 261 247 240 244 281 328 331 291 205 146 120 63 56 78 79 80 83 90 87 76 77 90 244 255 248 233 240 265 277 281 286
210 210 209 207 205 203 201 200 200 199 198 197 195 194 192 191 191 192 194 194 194 193 195 199 202 204 201 198 197 192 192 195 194 189 180 175 171 180 188 184 189 188 168 160 173 204 238 283 311 289 258 267 283 267 246 240 237 238 253 308 315 237 178 131 120 132 109 97 88 78 74 76 68 58 58 73 172 120 90 176 229 276 280 271 274
212 212 212 212 210 208 205 203 203 203 202 202 201 200 198 197 196 196 199 200 200 198 199 203 204 207 207 205 204 198 195 197 195 193 189 185 178 189 198 188 197 208 204 196 212 291 314 314 329 311 277 268 275 262 225 219 234 235 241 278 261 178 146 118 118 128 112 93 81 70 63 59 51 46 51 72 108 101 79 72 67 34 309 275 260
214 215 214 214 213 211 209 207 206 205 205 206 205 205 204 203 202 202 203 204 205 204 204 206 207 210 211 210 210 204 200 199 200 201 201 200 192 197 217 220 221 230 229 230 277 283 285 285 285 303 295 283 280 261 215 195 221 226 219 218 197 165 139 126 124 127 118 96 79 68 61 53 45 42 46 64 85 84 73 63 59 51 4 337 274
216 217 216 215 214 214 212 210 208 207 208 209 208 208 208 207 206 206 207 208 209 209 209 209 209 211 213 214 215 212 206 204 205 209 214 218 214 211 222 235 244 249 255 259 265 267 269 270 269 282 295 301 308 276 196 169 190 197 195 200 195 176 155 146 141 137 127 106 85 67 54 47 41 40 41 52 65 65 60 53 50 47 31 23 358
217 217 217 216 216 215 215 213 211 210 210 211 212 212 212 211 211 210 211 212 214 214 214 213 212 212 214 217 219 216 209 205 208 212 218 226 227 225 226 233 249 256 265 266 265 271 275 277 274 275 289 300 306 290 210 174 190 192 193 202 199 192 185 178 189 187 163 162 113 58 28 25 24 27 30 35 45 51 51 47 43 38 28 22 12
217 218 217 218 218 216 216 215 214 213 212 212 214 215 216 216 217 217 216 217 218 218 219 218 216 215 217 220 222 218 210 206 210 214 218 227 230 233 231 232 241 248 257 262 266 274 282 288 284 280 285 289 293 288 259 220 206 196 197 211 208 209 219 220 228 232 233 244 250 307 335 348 350 355 2 9 19 29 36 40 37 30 20 12 9
216 217 217 218 218 217 217 216 216 215 215 215 215 217 219 220 221 223 222 222 223 222 222 222 219 218 219 222 223 219 213 210 212 216 221 227 232 235 237 235 236 240 245 250 260 273 280 283 279 273 279 284 285 285 266 240 223 209 209 225 227 233 241 235 242 247 247 260 273 291 309 323 330 333 333 334 351 4 10 20 26 23 17 9 5
217 217 217 217 217 217 217 217 216 216 216 217 217 218 220 221 222 223 224 224 225 225 224 223 221 220 220 222 223 220 218 216 217 220 224 227 231 233 236 237 237 237 240 244 253 267 273 271 267 265 273 281 278 276 267 244 229 225 222 223 231 242 249 256 266 257 252 262 270 277 292 310 321 326 326 321 323 336 348 357 10 15 15 10 3
219 218 218 218 217 217 217 217 217 217 217 218 218 220 220 221 221 222 222 222 222 224 223 223 222 221 220 221 222 221 220 220 220 223 226 227 227 228 231 237 240 239 239 241 245 253 266 271 267 262 264 272 273 272 268 248 232 233 232 231 240 252 273 294 296 281 275 272 269 275 284 295 308 316 324 323 314 315 323 334 347 1 10 12 10
219 219 219 219 219 218 217 217 218 218 218 218 219 221 222 223 223 223 223 222 221 223 223 223 225 225 224 223 223 222 222 221 222 225 228 228 224 223 227 233 239 240 238 238 240 245 256 262 265 263 260 263 268 269 265 252 238 237 240 242 247 254 268 292 310 311 309 296 281 280 288 296 306 312 317 316 309 306 303 306 315 332 356 7 12
219 220 220 220 219 218 218 219 219 219 218 218 219 221 222 223 224 224 225 224 224 225 224 224 226 226 226 225 225 224 224 223 224 227 230 231 226 222 224 231 237 239 239 238 237 238 243 251 262 265 264 264 268 268 263 255 246 243 245 248 252 255 256 262 286 305 309 304 299 299 303 309 317 322 320 311 302 297 292 290 290 299 322 343 353
219 221 220 220 220 218 219 220 219 218 218 219 220 221 222 224 225 225 225 225 225 226 226 226 227 227 226 226 226 226 226 225 225 227 230 231 229 224 223 227 234 239 242 241 236 235 237 245 257 265 266 264 263 264 261 256 252 249 247 249 253 256 254 257 271 290 299 300 302 308 313 315 320 328 326 304 289 285 282 281 281 285 293 302 313
219 221 221 221 221 219 219 220 219 218 218 219 220 221 223 224 225 227 227 227 226 226 227 227 228 228 227 227 227 227 228 228 228 228 228 230 230 228 225 225 230 237 242 243 239 236 236 241 252 261 265 263 262 263 262 258 253 251 252 252 254 257 258 260 269 282 296 304 307 309 313 314 314 322 326 299 277 277 279 281 284 287 286 285 290
218 221 222 222 222 220 219 220 219 219 219 219 221 222 223 224 225 226 227 227 227 227 227 227 227 227 228 229 230 230 230 231 231 231 229 230 231 230 229 227 229 234 239 242 240 237 237 240 246 255 261 264 265 265 263 260 255 253 255 255 255 255 256 262 269 272 280 297 306 306 307 308 305 311 320 307 283 280 283 286 288 288 287 284 282
Height
1554 1555 1556 1556 1557 1558 1560 1560 1561 1561 1562 1563 1564 1565 1565 1566 1567 1568 1570 1571 1573 1574 1576 1577 1578 1578 1578 1578 1578 1579 1580 1580 1581 1581 1582 1582 1582 1583 1583 1584 1584 1584 1585 1585 1585 1584 1584 1584 1584 1584 1584 1584 1585 1585 1586 1586 1587 1587 1588 1588 1589 1589 1589 1590 1590 1590 1590 1590 1590 1590 1591 1592 1592 1592 1592 1592 1593 1593 1594 1594 1595 1596 1596 1595 1595
1554 1555 1556 1557 1558 1559 1561 1561 1562 1562 1563 1564 1565 1566 1566 1568 1569 1570 1572 1573 1575 1576 1578 1579 1579 1579 1578 1578 1578 1579 1580 1581 1581 1582 1582 1583 1583 1584 1584 1584 1585 1585 1585 1585 1585 1585 1585 1585 1585 1585 1585 1585 1585 1586 1586 1586 1587 1588 1589 1589 1590 1590 1590 1591 1590 1590 1590 1591 1591 1591 1592 1592 1593 1593 1593 1593 1593 1594 1594 1595 1596 1596 1596 1596 1596
1554 1556 1557 1558 1558 1560 1562 1562 1563 1564 1565 1565 1566 1567 1568 1569 1570 1572 1573 1575 1576 1578 1579 1580 1580 1578 1577 1578 1579 1580 1581 1581 1582 1583 1583 1584 1584 1584 1584 1585 1585 1586 1586 1586 1586 1586 1586 1586 1586 1585 1585 1586 1586 1587 1587 1587 1587 1588 1589 1590 1591 1591 1591 1592 1591 1591 1591 1592 1592 1593 1593 1593 1593 1594 1594 1594 1594 1595 1595 1596 1597 1597 1597 1597 1597
1555 1556 1557 1559 1559 1561 1562 1563 1564 1565 1566 1567 1568 1568 1569 1570 1571 1573 1574 1576 1577 1579 1581 1581 1580 1578 1578 1580 1581 1581 1582 1582 1583 1584 1584 1584 1584 1584 1585 1585 1585 1586 1587 1587 1587 1586 1586 1586 1586 1586 1586 1587 1588 1588 1588 1588 1589 1589 1590 1591 1591 1592 1592 1592 1592 1592 1592 1593 1593 1594 1594 1594 1594 1594 1594 1595 1595 1595 1596 1597 1597 1597 1597 1597 1598
1556 1557 1558 1560 1561 1562 1563 1564 1565 1566 1567 1568 1569 1569 1570 1571 1572 1574 1575 1577 1579 1581 1582 1581 1580 1578 1580 1582 1582 1582 1582 1583 1584 1584 1585 1585 1585 1585 1585 1586 1586 1587 1588 1588 1587 1587 1587 1587 1587 1587 1588 1589 1589 1589 1589 1590 1590 1590 1591 1592 1592 1593 1593 1593 1592 1593 1593 1594 1594 1594 1595 1595 1595 1595 1595 1596 1596 1597 1597 1598 1598 1598 1598 1598 1598
1556 1557 1559 1561 1562 1563 1564 1565 1566 1567 1568 1569 1570 1570 1571 1572 1573 1575 1576 1578 1579 1581 1581 1581 1580 1579 1581 1583 1583 1582 1583 1584 1584 1585 1585 1585 1586 1586 1586 1587 1587 1587 1588 1588 1587 1587 1587 1588 1589 1589 1590 1591 1591 1591 1591 1591 1591 1592 1592 1593 1593 1593 1593 1593 1593 1594 1594 1594 1595 1595 1596 1596 1596 1596 1596 1597 1597 1597 1598 1598 1599 1599 1599 1599 1599
1557 1558 1560 1561 1563 1564 1565 1566 1567 1569 1569 1570 1571 1572 1572 1573 1575 1576 1577 1579 1579 1580 1581 1582 1581 1581 1583 1583 1583 1583 1584 1584 1585 1585 1586 1586 1586 1587 1587 1587 1588 1588 1589 1589 1588 1588 1588 1589 1590 1590 1591 1592 1593 1593 1592 1591 1591 1592 1594 1594 1594 1595 1594 1594 1595 1595 1595 1595 1595 1596 1596 1597 1597 1597 1597 1597 1597 1598 1598 1599 1599 1599 1600 1600 1600
1558 1559 1561 1563 1564 1565 1567 1568 1569 1570 1571 1572 1572 1573 1574 1575 1576 1577 1578 1579 1580 1580 1582 1583 1582 1583 1584 1584 1584 1584 1585 1585 1586 1586 1586 1587 1587 1587 1588 1588 1589 1589 1590 1590 1589 1588 1590 1590 1591 1591 1592 1592 1593 1594 1593 1592 1591 1592 1594 1595 1595 1596 1595 1595 1596 1596 1595 1596 1596 1596 1596 1597 1597 1597 1598 1598 1598 1598 1599 1599 1600 1600 1600 1600 1600
1558 1560 1562 1564 1565 1567 1568 1569 1570 1571 1572 1573 1573 1574 1575 1576 1577 1578 1579 1580 1581 1581 1583 1583 1583 1584 1584 1584 1585 1585 1586 1586 1586 1587 1587 1587 1588 1588 1588 1589 1589 1590 1591 1591 1590 1589 1590 1591 1592 1592 1593 1593 1594 1594 1593 1593 1592 1593 1594 1596 1596 1596 1596 1596 1596 1597 1597 1597 1597 1597 1597 1597 1598 1598 1599 1599 1599 1598 1599 1600 1600 1600 1600 1600 1601
1559 1561 1563 1564 1566 1567 1569 1570 1571 1572 1573 1574 1574 1575 1576 1577 1578 1579 1580 1581 1582 1582 1584 1583 1584 1585 1585 1586 1586 1586 1587 1587 1587 1587 1588 1588 1588 1589 1589 1590 1590 1591 1592 1592 1591 1590 1591 1592 1592 1593 1594 1594 1595 1595 1594 1593 1593 1594 1596 1597 1597 1597 1597 1597 1597 1598 1598 1597 1597 1597 1598 1598 1598 1599 1599 1599 1599 1599 1600 1600 1601 1601 1601 1601 1601
1559 1561 1563 1565 1567 1568 1570 1571 1572 1573 1574 1575 1575 1576 1577 1578 1579 1580 1581 1581 1583 1583 1584 1584 1584 1585 1586 1587 1587 1587 1587 1588 1588 1588 1588 1588 1589 1589 1590 1590 1591 1591 1592 1593 1593 1592 1592 1593 1594 1594 1595 1595 1596 1595 1595 1595 1596 1596 1597 1598 1598 1598 1598 1598 1599 1599 1598 1598 1598 1598 1598 1599 1599 1599 1600 1600 1600 1600 1601 1601 1601 1601 1602 1602 1602
1560 1562 1564 1566 1568 1569 1570 1572 1573 1574 1574 1575 1576 1577 1578 1579 1580 1580 1581 1582 1583 1584 1585 1585 1585 1586 1586 1587 1588 1588 1588 1588 1588 1589 1589 1589 1589 1590 1590 1591 1591 1592 1593 1593 1594 1594 1595 1595 1596 1597 1597 1597 1597 1597 1598 1598 1598 1598 1599 1599 1599 1599 1599 1599 1600 1600 1600 1600 1600 1600 1600 1600 1600 1600 1600 1601 1601 1601 1601 1602 1602 1602 1603 1602 1603
1560 1563 1565 1567 1569 1570 1571 1572 1573 1574 1575 1576 1577 1578 1579 1580 1581 1581 1582 1583 1584 1585 1585 1585 1586 1586 1587 1587 1588 1588 1588 1589 1589 1589 1590 1590 1590 1591 1591 1591 1592 1592 1593 1594 1595 1595 1596 1597 1597 1598 1598 1598 1598 1599 1599 1599 1599 1599 1599 1600 1601 1600 1600 1600 1601 1601 1601 1601 1601 1601 1601 1601 1601 1601 1601 1601 1602 1602 1603 1603 1603 1603 1603 1604 1604
1561 1563 1565 1567 1569 1571 1572 1573 1574 1575 1576 1577 1578 1579 1580 1580 1581 1582 1583 1584 1585 1585 1586 1586 1587 1587 1588 1588 1588 1589 1589 1590 1590 1590 1591 1591 1591 1591 1592 1592 1592 1593 1593 1594 1595 1596 1596 1597 1597 1598 1598 1598 1598 1599 1599 1600 1600 1599 1600 1601 1602 1601 1601 1601 1602 1602 1602 1603 1602 1602 1602 1602 1602 1602 1603 1603 1603 1604 1604 1604 1604 1604 1605 1605 1606
1562 1564 1566 1568 1570 1572 1573 1574 1575 1576 1577 1578 1579 1580 1580 1581 1582 1583 1584 1584 1585 1586 1587 1587 1588 1588 1588 1589 1589 1590 1590 1591 1591 1591 1592 1592 1592 1592 1593 1593 1593 1594 1594 1595 1595 1596 1597 1597 1598 1598 1598 1599 1599 1599 1600 1600 1601 1600 1601 1602 1603 1602 1603 1603 1603 1603 1604 1604 1604 1604 1604 1604 1604 1604 1604 1604 1605 1605 1605 1605 1606 1606 1606 1607 1607
1563 1565 1567 1569 1570 1572 1574 1575 1576 1577 1578 1579 1580 1581 1581 1582 1583 1583 1584 1585 1586 1587 1587 1588 1588 1589 1589 1590 1590 1591 1591 1591 1592 1592 1592 1593 1593 1593 1593 1594 1594 1595 1595 1595 1596 1597 1598 1598 1598 1598 1599 1599 1600 1600 1601 1601 1602 1602 1602 1603 1604 1604 1604 1604 1604 1604 1605 1605 1605 1605 1605 1605 1605 1605 1605 1606 1606 1606 1606 1607 1607 1607 1608 1608 1609
1564 1566 1567 1569 1571 1573 1574 1576 1577 1578 1579 1580 1581 1581 1582 1583 1584 1584 1585 1586 1587 1587 1588 1589 1589 1590 1590 1591 1591 1592 1592 1592 1593 1593 1593 1593 1594 1594 1595 1595 1595 1596 1596 1596 1597 1598 1598 1599 1599 1599 1600 1600 1601 1601 1602 1602 1602 1603 1603 1604 1604 1605 1605 1605 1605 1605 1606 1606 1606 1606 1606 1606 1606 1606 1607 1607 1607 1607 1608 1608 1608 1609 1609 1610 1610
1564 1566 1568 1570 1572 1574 1575 1576 1577 1578 1580 1580 1582 1582 1583 1584 1585 1585 1586 1587 1588 1588 1589 1589 1590 1591 1592 1592 1592 1593 1593 1594 1594 1594 1594 1595 1595 1595 1596 1596 1596 1597 1597 1597 1598 1599 1599 1600 1600 1600 1601 1601 1602 1603 1603 1604 1604 1605 1605 1605 1605 1606 1606 1606 1606 1606 1607 1607 1607 1607 1608 1608 1608 1608 1608 1608 1609 1609 1609 1610 1610 1610 1611 1611 1611
1565 1567 1569 1571 1572 1574 1576 1577 1578 1579 1580 1581 1582 1583 1584 1585 1585 1586 1587 1588 1588 1589 1590 1590 1591 1592 1592 1593 1593 1594 1594 1595 1595 1595 1595 1596 1596 1596 1597 1597 1598 1598 1598 1598 1599 1599 1600 1601 1601 1601 1602 1603 1603 1604 1605 1605 1606 1606 1606 1606 1606 1606 1606 1607 1607 1607 1608 1608 1608 1609 1609 1609 1609 1609 1609 1609 1610 1610 1610 1611 1611 1612 1612 1612 1613
1566 1568 1569 1571 1573 1575 1576 1577 1579 1580 1581 1582 1583 1584 1585 1585 1586 1587 1588 1589 1589 1590 1591 1591 1592 1593 1593 1594 1595 1595 1596 1596 1596 1596 1596 1597 1597 1598 1598 1598 1599 1599 1599 1599 1600 1600 1601 1601 1602 1602 1603 1603 1604 1605 1606 1606 1607 1607 1607 1607 1607 1607 1607 1608 1608 1608 1609 1609 1609 1610 1610 1610 1610 1610 1610 1611 1611 1611 1611 1612 1612 1612 1613 1613 1613
1566 1568 1570 1572 1573 1575 1576 1578 1579 1580 1581 1582 1583 1584 1585 1586 1587 1588 1588 1589 1590 1591 1592 1592 1593 1594 1594 1595 1596 1597 1597 1597 1597 1598 1598 1598 1599 1599 1599 1600 1600 1600 1600 1600 1601 1601 1602 1602 1603 1603 1604 1605 1605 1606 1607 1607 1608 1608 1608 1608 1608 1608 1608 1609 1609 1609 1610 1610 1610 1611 1611 1611 1611 1611 1612 1612 1612 1612 1612 1613 1613 1613 1614 1614 1614
1566 1568 1570 1572 1573 1575 1577 1578 1579 1580 1581 1582 1584 1585 1586 1587 1588 1589 1589 1590 1591 1592 1593 1594 1594 1595 1595 1596 1597 1598 1598 1599 1599 1599 1599 1600 1600 1600 1600 1601 1601 1601 1601 1601 1602 1602 1602 1603 1604 1605 1605 1606 1606 1607 1608 1608 1609 1609 1609 1609 1609 1610 1610 1609 1610 1610 1611 1611 1611 1611 1612 1612 1612 1612 1613 1613 1613 1614 1614 1614 1614 1614 1615 1615 1615
1566 1568 1570 1572 1573 1575 1577 1578 1579 1581 1582 1583 1584 1585 1586 1587 1589 1589 1590 1591 1592 1593 1594 1595 1595 1596 1596 1597 1597 1598 1599 1599 1600 1600 1600 1601 1601 1601 1601 1602 1602 1602 1602 1603 1603 1603 1604 1604 1605 1606 1606 1607 1608 1609 1609 1610 1610 1610 1610 1610 1611 1611 1611 1611 1611 1611 1612 1612 1612 1612 1612 1613 1613 1613 1613 1614 1614 1614 1615 1615 1615 1615 1615 1615 1615
1565 1567 1569 1571 1573 1575 1576 1578 1580 1581 1582 1583 1584 1585 1587 1588 1589 1590 1591 1592 1593 1594 1595 1596 1596 1597 1597 1598 1598 1599 1599 1600 1600 1601 1601 1601 1602 1602 1602 1603 1603 1604 1604 1604 1605 1605 1605 1606 1606 1607 1608 1608 1609 1610 1610 1611 1611 1611 1611 1612 1612 1612 1612 1612 1612 1612 1612 1613 1613 1613 1613 1613 1614 1614 1614 1615 1615 1615 1615 1615 1615 1615 1616 1616 1616
1565 1567 1569 1570 1572 1574 1576 1578 1580 1581 1582 1583 1584 1586 1587 1588 1589 1590 1592 1593 1594 1595 1596 1596 1597 1597 1598 1599 1599 1600 1600 1601 1601 1602 1602 1602 1603 1603 1603 1604 1605 1605 1605 1606 1606 1606 1607 1608 1608 1609 1609 1610 1611 1611 1612 1612 1612 1613 1613 1613 1613 1613 1613 1613 1613 1613 1613 1614 1614 1614 1614 1614 1614 1615 1615 1615 1616 1616 1616 1616 1616 1616 1616 1616 1616
1564 1566 1568 1570 1572 1574 1576 1578 1580 1581 1582 1583 1585 1586 1587 1588 1589 1591 1592 1593 1594 1595 1596 1597 1598 1598 1599 1600 1600 1601 1601 1602 1602 1602 1603 1603 1604 1604 1604 1605 1606 1606 1607 1607 1607 1608 1608 1609 1610 1610 1611 1611 1612 1612 1613 1613 1614 1614 1614 1614 1614 1614 1614 1614 1614 1614 1614 1614 1614 1614 1615 1615 1615 1616 1616 1616 1616 1617 1617 1617 1617 1617 1617 1617 1617
1564 1566 1568 1570 1572 1574 1576 1577 1579 1581 1582 1583 1585 1586 1587 1588 1590 1591 1592 1593 1594 1595 1597 1597 1598 1599 1600 1600 1601 1602 1602 1603 1603 1604 1604 1605 1605 1605 1606 1606 1606 1607 1608 1608 1609 1609 1610 1610 1611 1612 1612 1612 1613 1613 1614 1614 1615 1615 1615 1615 1615 1615 1615 1615 1615 1615 1615 1615 1615 1615 1615 1616 1616 1616 1617 1617 1617 1617 1618 1618 1618 1618 1618 1618 1618
1563 1565 1567 1569 1571 1573 1575 1577 1579 1580 1582 1583 1585 1586 1587 1588 1589 1591 1592 1593 1594 1596 1597 1598 1598 1599 1600 1601 1602 1602 1603 1603 1604 1605 1605 1606 1606 1606 1607 1607 1607 1608 1609 1609 1610 1610 1611 1611 1612 1613 1613 1613 1614 1614 1615 1615 1615 1616 1616 1616 1616 1616 1616 1616 1616 1616 1616 1616 1616 1616 1616 1616 1617 1617 1617 1617 1618 1618 1618 1618 1618 1618 1618 1618 1619
1562 1564 1566 1569 1571 1573 1575 1577 1578 1580 1581 1583 1584 1586 1587 1588 1589 1591 1592 1593 1594 1596 1597 1598 1599 1600 1600 1601 1602 1603 1603 1604 1605 1605 1606 1606 1607 1607 1607 1608 1608 1609 1609 1610 1610 1611 1612 1612 1613 1613 1614 1614 1615 1615 1615 1616 1616 1616 1617 1617 1617 1617 1617 1617 1617 1617 1617 1616 1616 1617 1617 1617 1617 1618 1618 1618 1618 1618 1619 1619 1619 1619 1619 1619 1619
1561 1564 1566 1568 1570 1572 1574 1576 1578 1580 1581 1583 1584 1586 1587 1588 1589 1591 1592 1593 1594 1596 1597 1598 1599 1600 1601 1602 1602 1603 1604 1604 1605 1606 1606 1607 1607 1608 1608 1608 1609 1609 1610 1610 1611 1612 1612 1613 1613 1614 1614 1615 1615 1616 1616 1616 1617 1617 1617 1618 1618 1618 1618 1618 1617 1617 1617 1617 1617 1617 1617 1617 1617 1618 1618 1618 1618 1619 1619 1619 1619 1619 1619 1619 1619
1561 1563 1565 1567 1570 1572 1574 1576 1578 1580 1581 1583 1584 1585 1587 1588 1589 1590 1592 1593 1594 1595 1597 1598 1599 1600 1601 1602 1602 1603 1604 1605 1605 1606 1607 1607 1608 1608 1609 1609 1609 1610 1610 1611 1612 1612 1613 1613 1614 1614 1615 1615 1616 1616 1616 1617 1617 1617 1618 1618 1618 1619 1619 1618 1618 1618 1618 1618 1618 1617 1617 1618 1618 1618 1618 1618 1618 1619 1619 1619 1619 1619 1620 1620 1620
1560 1562 1564 1567 1569 1571 1574 1575 1577 1579 1581 1582 1584 1585 1587 1588 1589 1590 1592 1593 1594 1595 1597 1598 1599 1600 1601 1602 1603 1603 1604 1605 1606 1607 1607 1608 1608 1609 1609 1609 1610 1610 1611 1611 1612 1613 1613 1614 1614 1614 1615 1615 1616 1616 1617 1617 1617 1618 1618 1619 1619 1619 1619 1619 1619 1619 1618 1618 1618 1618 1618 1618 1618 1618 1618 1618 1618 1619 1619 1619 1619 1619 1620 1620 1620
1558 1561 1564 1566 1568 1571 1573 1575 1577 1579 1580 1582 1584 1585 1587 1588 1589 1590 1592 1593 1594 1596 1597 1598 1599 1600 1601 1602 1603 1604 1605 1605 1606 1607 1607 1608 1609 1609 1610 1610 1610 1611 1611 1612 1612 1613 1614 1614 1614 1615 1615 1615 1616 1616 1617 1617 1618 1618 1619 1619 1619 1619 1620 1620 1619 1619 1619 1619 1619 1619 1619 1618 1618 1618 1618 1618 1618 1618 1619 1619 1619 1619 1620 1620 1620
1557 1560 1563 1565 1568 1570 1572 1574 1576 1578 1580 1582 1583 1585 1586 1588 1589 1590 1592 1593 1594 1596 1597 1598 1599 1600 1601 1602 1603 1604 1605 1606 1606 1607 1608 1608 1609 1610 1610 1610 1611 1611 1612 1612 1613 1613 1614 1614 1614 1615 1615 1615 1616 1616 1617 1618 1618 1618 1619 1619 1620 1620 1620 1620 1620 1620 1620 1619 1619 1619 1619 1619 1619 1619 1618 1619 1619 1619 1619 1619 1619 1619 1620 1620 1620
1556 1558 1561 1564 1567 1569 1571 1573 1575 1578 1580 1581 1583 1585 1586 1588 1589 1590 1592 1593 1594 1596 1597 1599 1600 1600 1601 1602 1603 1604 1605 1606 1607 1607 1608 1609 1610 1610 1610 1611 1611 1612 1612 1612 1613 1614 1614 1614 1614 1615 1615 1615 1616 1616 1617 1618 1618 1619 1619 1620 1620 1620 1620 1620 1620 1620 1620 1620 1619 1619 1619 1619 1619 1619 1619 1619 1619 1619 1619 1619 1619 1619 1619 1619 1620
1555 1557 1560 1563 1566 1568 1570 1573 1575 1577 1579 1581 1583 1584 1586 1587 1589 1590 1592 1593 1594 1596 1597 1598 1600 1600 1601 1602 1603 1604 1605 1606 1607 1608 1609 1609 1610 1610 1611 1611 1611 1612 1612 1613 1613 1614 1614 1614 1615 1615 1615 1615 1615 1616 1617 1618 1618 1619 1619 1620 1620 1620 1620 1620 1620 1621 1620 1620 1620 1619 1619 1619 1619 1619 1619 1619 1619 1619 1619 1619 1619 1619 1619 1619 1619
1554 1557 1559 1562 1564 1567 1569 1572 1574 1576 1578 1580 1582 1584 1586 1587 1589 1590 1592 1593 1594 1596 1597 1598 1599 1600 1601 1602 1603 1604 1605 1606 1607 1608 1609 1610 1610 1611 1611 1611 1612 1612 1613 1613 1614 1614 1614 1615 1615 1615 1615 1615 1615 1616 1617 1617 1618 1619 1620 1620 1620 1620 1620 1621 1621 1621 1621 1620 1620 1620 1620 1620 1619 1619 1619 1619 1619 1619 1619 1619 1619 1619 1619 1619 1619
1553 1556 1558 1561 1563 1566 1568 1571 1573 1576 1578 1580 1582 1584 1585 1587 1588 1590 1591 1593 1594 1595 1596 1598 1599 1600 1601 1602 1603 1604 1605 1606 1607 1608 1609 1610 1610 1611 1611 1611 1612 1612 1613 1613 1614 1614 1615 1615 1615 1615 1615 1615 1616 1616 1617 1617 1618 1619 1620 1620 1620 1620 1621 1621 1621 1621 1621 1621 1620 1620 1620 1620 1620 1620 1619 1619 1619 1619 1619 1619 1619 1619 1619 1619 1619
1551 1554 1557 1559 1562 1565 1567 1569 1572 1574 1577 1579 1581 1583 1584 1586 1587 1589 1590 1592 1593 1594 1596 1597 1598 1600 1601 1602 1603 1604 1605 1606 1607 1608 1609 1610 1610 1611 1611 1612 1612 1612 1613 1613 1614 1614 1615 1615 1616 1616 1615 1616 1616 1616 1617 1617 1618 1619 1620 1620 1620 1620 1621 1621 1621 1621 1621 1621 1621 1621 1620 1620 1620 1620 1620 1619 1619 1619 1619 1619 1619 1619 1619 1619 1619
1549 1552 1555 1557 1560 1563 1565 1568 1570 1572 1575 1577 1579 1581 1583 1584 1586 1587 1589 1590 1592 1593 1595 1596 1597 1599 1600 1601 1603 1603 1605 1606 1607 1608 1609 1610 1610 1611 1611 1611 1612 1612 1613 1613 1614 1614 1614 1615 1615 1616 1615 1615 1616 1616 1616 1617 1618 1619 1620 1620 1620 1621 1621 1621 1621 1621 1621 1621 1621 1621 1621 1621 1620 1620 1620 1620 1620 1620 1619 1619 1619 1619 1619 1619 1619
1547 1550 1552 1555 1557 1560 1563 1565 1568 1570 1572 1575 1577 1578 1580 1582 1584 1586 1587 1589 1591 1592 1594 1595 1596 1598 1599 1601 1602 1603 1604 1605 1606 1607 1608 1609 1610 1610 1611 1611 1612 1612 1613 1613 1614 1614 1614 1615 1615 1616 1615 1615 1615 1616 1616 1616 1618 1619 1619 1620 1620 1621 1621 1621 1621 1622 1622 1622 1621 1621 1621 1621 1621 1621 1620 1620 1620 1620 1620 1619 1619 1619 1619 1619 1619
1543 1546 1549 1552 1555 1558 1560 1563 1566 1568 1570 1573 1575 1577 1579 1581 1583 1585 1587 1589 1590 1592 1593 1594 1596 1597 1599 1600 1601 1603 1604 1605 1606 1607 1608 1609 1610 1610 1611 1611 1612 1612 1613 1613 1614 1614 1614 1615 1615 1615 1615 1615 1615 1616 1616 1617 1618 1618 1619 1620 1620 1621 1621 1621 1621 1622 1622 1622 1622 1622 1621 1621 1621 1621 1621 1621 1621 1620 1620 1620 1619 1619 1619 1618 1618
1541 1544 1547 1550 1552 1555 1558 1560 1563 1565 1568 1571 1573 1575 1578 1580 1583 1585 1587 1588 1589 1591 1592 1594 1595 1597 1598 1599 1601 1602 1603 1604 1605 1606 1607 1608 1609 1610 1610 1611 1611 1612 1612 1613 1613 1614 1614 1615 1615 1615 1615 1616 1616 1616 1616 1617 1618 1618 1619 1620 1620 1621 1621 1621 1621 1621 1622 1621 1622 1622 1621 1621 1621 1621 1621 1621 1621 1621 1620 1620 1619 1619 1618 1618 1618
1538 1540 1543 1546 1549 1552 1554 1557 1560 1563 1566 1569 1571 1574 1577 1579 1582 1584 1586 1587 1589 1590 1592 1593 1594 1596 1597 1598 1600 1601 1602 1603 1604 1605 1606 1607 1608 1609 1609 1610 1611 1611 1612 1613 1613 1614 1614 1614 1615 1615 1615 1616 1616 1616 1616 1616 1617 1618 1619 1619 1620 1620 1621 1621 1621 1621 1621 1621 1621 1621 1622 1622 1621 1622 1622 1621 1621 1621 1621 1620 1619 1619 1618 1618 1617
1534 1536 1539 1542 1545 1548 1552 1555 1558 1561 1564 1567 1570 1572 1575 1577 1580 1582 1584 1585 1587 1589 1590 1591 1593 1594 1595 1597 1599 1600 1601 1602 1603 1604 1605 1606 1607 1608 1609 1609 1610 1611 1611 1612 1613 1613 1614 1614 1614 1615 1615 1615 1616 1616 1616 1616 1617 1618 1618 1619 1620 1620 1620 1620 1621 1621 1621 1621 1621 1621 1621 1621 1621 1621 1621 1621 1621 1621 1620 1620 1619 1619 1618 1617 1617
1530 1534 1537 1540 1543 1546 1549 1552 1555 1558 1561 1564 1567 1570 1572 1575 1577 1579 1581 1583 1585 1586 1588 1590 1591 1593 1594 1596 1598 1599 1600 1601 1602 1603 1604 1605 1606 1607 1608 1608 1609 1610 1610 1611 1612 1613 1613 1614 1614 1614 1615 1615 1615 1616 1616 1616 1616 1617 1618 1619 1619 1620 1620 1620 1621 1621 1621 1621 1621 1621 1621 1621 1621 1621 1621 1621 1621 1620 1620 1620 1619 1619 1618 1617 1617
1528 1532 1535 1538 1541 1544 1547 1550 1553 1555 1559 1561 1564 1567 1570 1572 1574 1577 1579 1581 1582 1584 1586 1588 1590 1592 1593 1595 1597 1598 1599 1600 1601 1602 1603 1604 1605 1606 1607 1607 1608 1609 1609 1610 1611 1612 1613 1613 1614 1614 1614 1614 1615 1615 1616 1616 1616 1617 1617 1618 1619 1619 1620 1620 1621 1621 1621 1620 1620 1621 1621 1621 1621 1621 1621 1621 1620 1620 1620 1619 1619 1619 1618 1618 1617
1527 1530 1533 1535 1538 1541 1544 1547 1550 1553 1556 1558 1561 1564 1567 1569 1572 1575 1577 1579 1581 1583 1585 1587 1589 1590 1592 1594 1596 1597 1598 1599 1600 1601 1602 1603 1604 1605 1605 1606 1607 1608 1608 1609 1610 1611 1612 1612 1613 1613 1614 1614 1614 1615 1615 1616 1616 1616 1617 1618 1618 1619 1619 1620 1620 1621 1621 1620 1620 1620 1621 1620 1620 1620 1620 1620 1620 1619 1619 1619 1619 1618 1618 1617 1617
1525 1527 1530 1533 1536 1539 1542 1545 1548 1550 1553 1556 1558 1561 1564 1567 1570 1572 1574 1576 1579 1581 1584 1585 1587 1589 1591 1592 1594 1596 1597 1598 1599 1600 1601 1602 1603 1603 1604 1605 1606 1607 1607 1608 1609 1610 1611 1612 1612 1613 1613 1614 1614 1614 1615 1615 1615 1616 1616 1617 1618 1618 1619 1620 1620 1620 1620 1620 1620 1620 1620 1620 1619 1619 1619 1619 1619 1619 1619 1618 1618 1618 1617 1617 1617
1522 1525 1528 1531 1534 1537 1540 1542 1545 1547 1550 1553 1556 1559 1562 1564 1567 1569 1572 1574 1577 1579 1581 1583 1585 1587 1589 1591 1593 1594 1596 1597 1598 1599 1600 1600 1601 1602 1603 1604 1605 1606 1607 1607 1608 1609 1610 1611 1611 1612 1612 1613 1613 1614 1614 1615 1615 1615 1616 1616 1617 1618 1618 1619 1619 1620 1620 1620 1620 1620 1620 1619 1619 1619 1618 1618 1618 1618 1618 1617 1617 1617 1617 1617 1616
1519 1522 1525 1528 1531 1534 1537 1539 1542 1545 1547 1550 1553 1556 1559 1561 1564 1566 1569 1572 1574 1577 1579 1581 1583 1585 1587 1589 1591 1593 1594 1595 1597 1597 1598 1599 1600 1601 1602 1603 1604 1605 1605 1606 1607 1608 1609 1610 1610 1611 1611 1612 1613 1613 1613 1614 1614 1615 1615 1616 1616 1617 1617 1618 1619 1619 1619 1620 1619 1619 1619 1619 1618 1618 1617 1617 1617 1617 1617 1617 1616 1616 1616 1616 1616